CYGFM02 (41886 NORAD) Tracking and Keplerian Element Data

This shows tracking and keplerian element data for the satellite.

Feedback or suggestion? Click here.




ElementValue
Catalog41886
NameCYGFM02
Epoch Orbit10559
Epoch Day315.76314945
Epoch Year2018
RAAN82.2869
Inclination34.959
Eccentricity0.0015667
Argument of Perigee239.4984
Mean Anonmoly120.418
Mean Motion15.14749398
Decay Rate4.3E-06
L11 41886U 16078C 18315.76314945 .00000430 00000-0 24326-4 0 9994
L22 41886 34.9590 82.2869 0015667 239.4984 120.4180 15.14749398105595

Live tracking and technical data element details for CYGFM02 (NORAD 41886). CYGFM02 can be tracked NOW for your location showing map with azimuth and elevation plus other details from your city location.

Track the satellite on the map from your city or location and see movement details for azimuth, elevation, latitude, longitude, range, height, and movement on the map or in text.







IsCatalogInMostPopularTable: catalog: 41886, numindb: 131
Update: records affected: 1



GetName: 41886 CYGFM02

Hit Count: updated at: Mon, 12 Nov 2018 17:46:42 GMT